Weather History for Riverside March, CA

Change the Weather History Date:

Sunday, December 1, 2013

  Actual Average Record
Temperature  
Mean Temperature 57 °F -  
Max Temperature 73 °F 64 °F 82 °F (2008)
Min Temperature 41 °F 39 °F 30 °F (2004)
Degree Days  
Heating Degree Days 8    
Growing Degree Days 7 (Base 50)    
Moisture  
Dew Point 35 °F    
Average Humidity 55    
Maximum Humidity 85    
Minimum Humidity 17    
Precipitation  
Precipitation 0.00 in - - ()
Sea Level Pressure  
Sea Level Pressure 30.18 in    
Wind  
Wind Speed 2 mph (NW)    
Max Wind Speed 7 mph    
Max Gust Speed -    
Visibility 10 miles    
Events      
Averages and records for this station are not official NWS values.
T = Trace of Precipitation, MM = Missing Value Source: NWS Daily Summary

Daily Weather History Graph

Daily Weather History Graph

Search for Another Location

Airport:

Trip Planner

Search our weather history database for the weather conditions in past years. The results will help you decide how hot, cold, wet, or windy it might be!

Date:

Astronomy

Dec. 01, 2013 Rise Set
Actual Time 6:36 AM PST 4:39 PM PST
Civil Twilight 6:08 AM PST 5:07 PM PST
Nautical Twilight 5:38 AM PST 5:38 PM PST
Astronomical Twilight 5:07 AM PST 6:08 PM PST
Moon 5:02 AM PST (12/1) 3:51 PM PST (12/1)
Length of Visible Light 10h 58m
Length of Day
10h 03m
Waning Crescent, 2% of the Moon is Illuminated
Dec 1
Waning Crescent
Dec 2
New
Dec 9
First Quarter
Dec 17
Full
Dec 25
Last Quarter

Hourly Weather History & Observations

Time (PST) Temp. Windchill Dew Point Humidity Pressure Visibility Wind Dir Wind Speed Gust Speed Precip Events Conditions
12:58 AM 46.6 °F - 39.6 °F 77% 30.17 in 10.0 mi North 3.5 mph - N/A   Clear
1:58 AM 47.5 °F - 39.2 °F 73% 30.17 in 10.0 mi Calm Calm - N/A   Clear
2:58 AM 43.3 °F - 37.9 °F 81% 30.18 in 10.0 mi Calm Calm - N/A   Clear
3:58 AM 42.3 °F 40.5 °F 37.8 °F 84% 30.18 in 10.0 mi NNW 3.5 mph - N/A   Clear
4:58 AM 41.5 °F - 37.4 °F 85% 30.20 in 10.0 mi Calm Calm - N/A   Clear
5:58 AM 43.3 °F - 37.9 °F 81% 30.21 in 10.0 mi Calm Calm - N/A   Clear
6:58 AM 41.5 °F - 36.9 °F 83% 30.22 in 10.0 mi Calm Calm - N/A   Clear
7:58 AM 43.3 °F - 39.2 °F 85% 30.25 in 10.0 mi Calm Calm - N/A   Clear
8:58 AM 50.5 °F - 40.1 °F 67% 30.25 in 10.0 mi NNW 1.2 mph - N/A   Clear
9:58 AM 63.3 °F - 40.3 °F 43% 30.24 in 10.0 mi SE 4.6 mph - N/A   Clear
10:58 AM 68.2 °F - 31.5 °F 26% 30.22 in 10.0 mi Calm Calm - N/A   Clear
11:58 AM 71.2 °F - 30.6 °F 22% 30.18 in 10.0 mi NNW 6.9 mph - N/A   Clear
12:58 PM 72.5 °F - 29.3 °F 20% 30.16 in 10.0 mi Variable 2.3 mph - N/A   Clear
1:58 PM 73.9 °F - 26.1 °F 17% 30.14 in 10.0 mi Variable 3.5 mph - N/A   Clear
2:58 PM 73.9 °F - 28.2 °F 18% 30.13 in 10.0 mi Calm Calm - N/A   Clear
3:58 PM 73.0 °F - 30.6 °F 21% 30.12 in 10.0 mi NW 2.3 mph - N/A   Clear
4:58 PM 60.8 °F - 34.3 °F 37% 30.15 in 10.0 mi Calm Calm - N/A   Clear
5:58 PM 57.6 °F - 32.7 °F 39% 30.16 in 10.0 mi NNW 5.8 mph - N/A   Clear
6:58 PM 56.3 °F - 34.2 °F 43% 30.19 in 10.0 mi WNW 5.8 mph - N/A   Clear
7:58 PM 48.9 °F - 34.3 °F 57% 30.18 in 10.0 mi SW 3.5 mph - N/A   Clear
8:58 PM 47.3 °F - 34.7 °F 62% 30.18 in 10.0 mi Calm Calm - N/A   Clear
9:58 PM 44.6 °F - 34.2 °F 67% 30.18 in 10.0 mi WNW 2.3 mph - N/A   Clear
10:58 PM 45.9 °F 44.6 °F 33.8 °F 63% 30.19 in 10.0 mi West 3.5 mph - N/A   Clear
11:58 PM 44.6 °F - 32.4 °F 62% 30.15 in 10.0 mi Variable 2.3 mph - N/A   Clear